Location: Three Guys Observatory
(38.6418°N, 87.1521°W)
Time: 10:16:29
(UTC-05:00)

ISS - Visible Passes

Search period start: 24 January 2017 00:00
Search period end: 03 February 2017 00:00
Orbit: 399 x 409 km, 51.6° (Epoch: 25 January)

Date Brightness Start Highest point End Pass type
(mag) Time Alt. Az. Time Alt. Az. Time Alt. Az.
26 Jan -1.8 19:41:09 10° SSW 19:43:08 25° SSE 19:43:08 25° SSE visible
27 Jan -1.3 18:49:55 10° SSE 18:51:58 16° SE 18:53:29 12° E visible
27 Jan -0.6 20:24:58 10° WSW 20:26:11 20° WSW 20:26:11 20° WSW visible
28 Jan -3.5 19:32:35 10° SW 19:35:51 84° SE 19:36:25 57° ENE visible
29 Jan -2.6 18:40:32 10° SSW 18:43:36 39° SE 18:46:34 11° ENE visible
29 Jan -0.9 20:17:26 10° W 20:19:15 21° NW 20:19:15 21° NW visible
30 Jan -2.3 19:24:36 10° WSW 19:27:43 39° NNW 19:29:19 23° NNE visible
31 Jan -3.2 18:32:04 10° SW 18:35:20 76° NW 18:38:37 10° NE visible
31 Jan -0.7 20:10:18 10° WNW 20:11:57 15° NNW 20:11:57 15° NNW visible
01 Feb -1.2 19:17:07 10° WNW 19:19:41 21° NNW 19:21:52 12° NNE visible
02 Feb -0.5 20:03:44 10° NNW 20:04:22 10° NNW 20:04:22 10° NNW visible
